TimeMDT,TemperatureF,Dew PointF,Humidity,Sea Level PressureIn,VisibilityMPH,Wind Direction,Wind SpeedMPH,Gust SpeedMPH,PrecipitationIn,Events,Conditions,WindDirDegrees,DateUTC
12:15 AM,59.9,50.9,72,30.31,10.0,SSE,5.8,-,N/A,,Clear,160,2013-08-16 06:15:00
12:35 AM,60.6,50.5,69,30.30,10.0,SE,6.9,-,N/A,,Clear,140,2013-08-16 06:35:00
12:55 AM,59.9,50.4,71,30.29,10.0,SE,5.8,-,N/A,,Clear,130,2013-08-16 06:55:00
1:15 AM,59.2,50.4,73,30.30,10.0,SE,3.5,-,N/A,,Clear,140,2013-08-16 07:15:00
1:35 AM,59.4,50.2,72,30.30,10.0,SE,6.9,-,N/A,,Clear,140,2013-08-16 07:35:00
1:55 AM,59.9,50.2,70,30.29,10.0,SSE,5.8,-,N/A,,Clear,150,2013-08-16 07:55:00
2:15 AM,60.3,50.2,69,30.29,10.0,SE,8.1,-,N/A,,Clear,140,2013-08-16 08:15:00
2:35 AM,60.4,50.2,69,30.29,10.0,SSE,8.1,-,N/A,,Clear,160,2013-08-16 08:35:00
2:55 AM,60.1,50.0,69,30.29,10.0,SE,4.6,-,N/A,,Clear,140,2013-08-16 08:55:00
3:15 AM,59.0,49.8,72,30.29,10.0,SSE,4.6,-,N/A,,Clear,160,2013-08-16 09:15:00
3:35 AM,55.4,49.3,80,30.29,10.0,South,5.8,-,N/A,,Clear,180,2013-08-16 09:35:00
3:55 AM,53.6,48.9,84,30.29,10.0,West,3.5,-,N/A,,Clear,280,2013-08-16 09:55:00
4:15 AM,52.0,47.7,85,30.29,10.0,Calm,Calm,-,N/A,,Clear,0,2013-08-16 10:15:00
4:35 AM,51.6,47.7,86,30.29,10.0,Calm,Calm,-,N/A,,Clear,0,2013-08-16 10:35:00
4:55 AM,52.2,48.4,87,30.30,10.0,NNW,3.5,-,N/A,,Clear,340,2013-08-16 10:55:00
5:15 AM,50.9,47.3,87,30.30,10.0,NNW,3.5,-,N/A,,Clear,340,2013-08-16 11:15:00
5:35 AM,50.4,46.8,87,30.31,10.0,NE,5.8,-,N/A,,Clear,40,2013-08-16 11:35:00
5:55 AM,50.7,48.0,90,30.32,10.0,NE,3.5,-,N/A,,Clear,50,2013-08-16 11:55:00
6:15 AM,50.9,48.2,90,30.31,10.0,Calm,Calm,-,N/A,,Clear,0,2013-08-16 12:15:00
6:35 AM,49.3,47.3,93,30.31,10.0,Calm,Calm,-,N/A,,Clear,0,2013-08-16 12:35:00
6:55 AM,49.1,46.9,92,30.31,10.0,Calm,Calm,-,N/A,,Clear,0,2013-08-16 12:55:00
7:15 AM,51.3,48.7,91,30.32,10.0,Calm,Calm,-,N/A,,Clear,0,2013-08-16 13:15:00
7:35 AM,55.4,50.5,84,30.32,10.0,NW,3.5,-,N/A,,Clear,320,2013-08-16 13:35:00
7:55 AM,59.7,51.1,73,30.32,10.0,North,4.6,-,N/A,,Clear,360,2013-08-16 13:55:00
8:15 AM,62.4,52.0,69,30.32,10.0,Calm,Calm,-,N/A,,Clear,0,2013-08-16 14:15:00
8:35 AM,65.5,51.6,61,30.33,10.0,NNE,3.5,-,N/A,,Clear,30,2013-08-16 14:35:00
8:55 AM,67.5,50.7,55,30.33,10.0,NNE,3.5,-,N/A,,Clear,30,2013-08-16 14:55:00
9:15 AM,69.6,49.3,48,30.33,10.0,NNE,3.5,-,N/A,,Clear,20,2013-08-16 15:15:00
9:35 AM,72.0,48.2,43,30.33,10.0,Calm,Calm,-,N/A,,Clear,0,2013-08-16 15:35:00
9:55 AM,74.3,48.7,40,30.33,10.0,North,5.8,-,N/A,,Clear,350,2013-08-16 15:55:00
10:15 AM,75.6,47.3,37,30.33,10.0,North,8.1,-,N/A,,Clear,350,2013-08-16 16:15:00
10:35 AM,78.1,47.1,33,30.32,10.0,NNW,8.1,-,N/A,,Clear,340,2013-08-16 16:35:00
10:55 AM,79.0,46.0,31,30.32,10.0,NNW,8.1,-,N/A,,Clear,330,2013-08-16 16:55:00
11:15 AM,79.5,46.0,31,30.32,10.0,North,5.8,-,N/A,,Clear,10,2013-08-16 17:15:00
11:35 AM,80.4,46.2,30,30.32,10.0,NNE,3.5,-,N/A,,Clear,20,2013-08-16 17:35:00
11:55 AM,82.2,46.2,28,30.31,10.0,NNW,6.9,-,N/A,,Clear,330,2013-08-16 17:55:00
12:15 PM,82.9,44.8,26,30.31,10.0,North,5.8,-,N/A,,Clear,10,2013-08-16 18:15:00
12:35 PM,85.3,44.6,24,30.30,10.0,NE,4.6,-,N/A,,Clear,40,2013-08-16 18:35:00
12:55 PM,86.4,41.2,20,30.29,10.0,West,6.9,17.3,N/A,,Clear,270,2013-08-16 18:55:00
1:15 PM,87.4,39.0,18,30.29,10.0,WNW,4.6,-,N/A,,Clear,290,2013-08-16 19:15:00
1:35 PM,88.7,34.3,14,30.28,10.0,NNW,11.5,16.1,N/A,,Clear,340,2013-08-16 19:35:00
1:55 PM,90.3,32.7,13,30.28,10.0,NNW,11.5,16.1,N/A,,Clear,330,2013-08-16 19:55:00
2:15 PM,88.7,30.7,13,30.28,10.0,North,3.5,-,N/A,,Clear,360,2013-08-16 20:15:00
2:35 PM,84.6,34.0,16,30.28,10.0,WSW,18.4,25.3,N/A,,Clear,240,2013-08-16 20:35:00
2:55 PM,87.6,35.2,16,30.27,10.0,WSW,25.3,-,N/A,,Scattered Clouds,240,2013-08-16 20:55:00
3:15 PM,87.4,33.8,15,30.26,10.0,SW,20.7,29.9,N/A,,Scattered Clouds,220,2013-08-16 21:15:00
3:35 PM,87.3,33.1,14,30.26,10.0,SSW,12.7,20.7,N/A,,Clear,210,2013-08-16 21:35:00
3:55 PM,88.5,33.4,14,30.26,10.0,South,6.9,-,N/A,,Clear,190,2013-08-16 21:55:00
4:15 PM,88.5,32.4,13,30.25,10.0,SSW,6.9,-,N/A,,Clear,200,2013-08-16 22:15:00
4:35 PM,88.9,33.1,14,30.25,10.0,NW,5.8,-,N/A,,Clear,310,2013-08-16 22:35:00
4:55 PM,87.6,32.9,14,30.24,10.0,SE,8.1,-,N/A,,Clear,130,2013-08-16 22:55:00
5:15 PM,87.3,33.1,14,30.23,10.0,SE,6.9,-,N/A,,Clear,140,2013-08-16 23:15:00
5:35 PM,87.1,32.7,14,30.23,10.0,Calm,Calm,-,N/A,,Clear,0,2013-08-16 23:35:00
5:55 PM,86.7,32.9,15,30.23,10.0,SSE,6.9,-,N/A,,Clear,150,2013-08-16 23:55:00
6:15 PM,86.4,33.3,15,30.24,10.0,SE,8.1,-,N/A,,Clear,130,2013-08-17 00:15:00
6:35 PM,83.8,39.0,20,30.25,10.0,ESE,18.4,23.0,N/A,,Clear,110,2013-08-17 00:35:00
6:55 PM,81.9,39.4,22,30.25,10.0,ESE,16.1,-,N/A,,Clear,120,2013-08-17 00:55:00
7:15 PM,79.9,40.3,24,30.26,10.0,SE,11.5,-,N/A,,Clear,130,2013-08-17 01:15:00
7:35 PM,77.2,41.4,28,30.27,10.0,SE,11.5,-,N/A,,Clear,130,2013-08-17 01:35:00
7:55 PM,75.4,41.2,29,30.28,10.0,ESE,16.1,20.7,N/A,,Clear,120,2013-08-17 01:55:00
8:15 PM,73.8,43.0,33,30.28,10.0,ESE,13.8,-,N/A,,Clear,120,2013-08-17 02:15:00
8:35 PM,72.7,43.7,35,30.29,10.0,SE,11.5,-,N/A,,Clear,130,2013-08-17 02:35:00
8:55 PM,72.5,44.6,37,30.31,10.0,SE,10.4,-,N/A,,Clear,130,2013-08-17 02:55:00
9:15 PM,72.5,44.8,37,30.33,10.0,SE,6.9,-,N/A,,Scattered Clouds,140,2013-08-17 03:15:00
9:35 PM,71.1,47.7,43,30.33,10.0,SE,12.7,-,N/A,,Mostly Cloudy,140,2013-08-17 03:35:00
9:55 PM,69.6,49.5,49,30.34,10.0,SE,9.2,-,N/A,,Scattered Clouds,140,2013-08-17 03:55:00
10:15 PM,69.4,49.3,49,30.34,10.0,South,8.1,-,N/A,,Clear,170,2013-08-17 04:15:00
10:35 PM,69.1,48.6,48,30.34,10.0,SE,9.2,-,N/A,,Clear,130,2013-08-17 04:35:00
10:55 PM,70.9,45.5,40,30.35,10.0,South,12.7,16.1,N/A,,Clear,170,2013-08-17 04:55:00
11:15 PM,69.8,46.8,44,30.34,10.0,SSE,12.7,-,N/A,,Clear,160,2013-08-17 05:15:00
11:35 PM,68.4,46.9,46,30.34,10.0,SW,5.8,-,N/A,,Clear,220,2013-08-17 05:35:00
11:55 PM,66.7,47.1,49,30.34,10.0,South,5.8,-,N/A,,Clear,180,2013-08-17 05:55:00